, FL

(GMT )
Whiting Fld NAS

Weather History for KNSE - February, 2014

Change the Weather History Date:

Friday, February 28, 2014

  Actual Average Record
Temperature  
Mean Temperature 44 °F -  
Max Temperature 61 °F 65 °F 80 °F (2011)
Min Temperature 26 °F 46 °F 19 °F (2002)
Degree Days  
Heating Degree Days 22    
Moisture  
Dew Point 27 °F    
Average Humidity 55    
Maximum Humidity 84    
Minimum Humidity 21    
Precipitation  
Precipitation 0.00 in - - ()
Sea Level Pressure  
Sea Level Pressure 30.06 in    
Wind  
Wind Speed 4 mph (SSE)    
Max Wind Speed 12 mph    
Max Gust Speed -    
Visibility 10 miles    
Events      
Averages and records for this station are not official NWS values.
T = Trace of Precipitation, MM = Missing Value Source: NWS Daily Summary

Daily Weather History Graph

Daily Weather History Graph

Search for Another Location

Airport or City:

Trip Planner

Search our weather history database for the weather conditions in past years. The results will help you decide how hot, cold, wet, or windy it might be!

Date:

Astronomy

Feb. 28, 2014 Rise Set
Actual Time 6:15 AM CST 5:46 PM CST
Civil Twilight 5:51 AM CST 6:10 PM CST
Nautical Twilight 5:23 AM CST 6:38 PM CST
Astronomical Twilight 4:55 AM CST 7:06 PM CST
Moon 5:29 AM CST (2/28) 5:21 PM CST (2/28)
Length of Visible Light 12h 18m
Length of Day
11h 30m
Waning Crescent, 1% of the Moon is Illuminated
Feb 28
Waning Crescent
Mar 1
New
Mar 8
First Quarter
Mar 16
Full
Mar 23
Last Quarter

Hourly Weather History & Observations

Time (CST) Temp. Windchill Dew Point Humidity Pressure Visibility Wind Dir Wind Speed Gust Speed Precip Events Conditions
12:56 AM 30.9 °F - 23.0 °F 72% 30.01 in 10.0 mi Calm Calm - N/A   Clear
1:56 AM 30.9 °F 26.2 °F 26.1 °F 82% 30.01 in 10.0 mi North 4.6 mph - N/A   Clear
2:56 AM 30.0 °F 26.5 °F 23.0 °F 75% 29.99 in 10.0 mi North 3.5 mph - N/A   Clear
3:56 AM 28.0 °F - 23.0 °F 81% 30.01 in 10.0 mi Calm Calm - N/A   Clear
4:56 AM 26.1 °F - 21.9 °F 84% 30.03 in 10.0 mi Calm Calm - N/A   Clear
5:56 AM 27.0 °F - 21.9 °F 81% 30.05 in 10.0 mi Calm Calm - N/A   Clear
6:56 AM 32.0 °F 27.5 °F 21.9 °F 66% 30.08 in 10.0 mi NNE 4.6 mph - N/A   Clear
7:56 AM 39.9 °F 34.5 °F 23.0 °F 51% 30.10 in 10.0 mi ENE 8.1 mph - N/A   Clear
8:56 AM 46.9 °F - 24.1 °F 41% 30.09 in 10.0 mi East 6.9 mph - N/A   Partly Cloudy
9:56 AM 52.0 °F - 21.0 °F 30% 30.09 in 10.0 mi ESE 8.1 mph - N/A   Partly Cloudy
10:56 AM 55.0 °F - 19.9 °F 25% 30.10 in 10.0 mi SE 5.8 mph - N/A   Scattered Clouds
11:56 AM 57.9 °F - 19.0 °F 22% 30.06 in 10.0 mi SE 6.9 mph - N/A   Partly Cloudy
12:56 PM 61.0 °F - 19.9 °F 21% 30.04 in 10.0 mi SSW 8.1 mph - N/A   Partly Cloudy
1:56 PM 60.1 °F - 24.1 °F 25% 30.04 in 10.0 mi SSE 3.5 mph - N/A   Scattered Clouds
2:56 PM 60.1 °F - 27.0 °F 28% 30.03 in 10.0 mi SSE 9.2 mph - N/A   Scattered Clouds
3:56 PM 59.0 °F - 28.0 °F 31% 30.03 in 10.0 mi South 11.5 mph - N/A   Scattered Clouds
4:56 PM 55.0 °F - 32.0 °F 42% 30.05 in 10.0 mi SSW 10.4 mph - N/A   Scattered Clouds
5:56 PM 52.0 °F - 34.0 °F 50% 30.08 in 10.0 mi SW 6.9 mph - N/A   Mostly Cloudy
6:56 PM 52.0 °F - 36.0 °F 54% 30.07 in 10.0 mi South 9.2 mph - N/A   Mostly Cloudy
7:56 PM 50.0 °F - 37.9 °F 63% 30.06 in 10.0 mi SSE 5.8 mph - N/A   Mostly Cloudy
8:56 PM 50.0 °F - 37.9 °F 63% 30.11 in 10.0 mi WNW 6.9 mph - N/A   Mostly Cloudy
9:56 PM 50.0 °F - 39.0 °F 66% 30.09 in 10.0 mi South 6.9 mph - N/A   Mostly Cloudy
10:56 PM 46.0 °F - 39.0 °F 76% 30.10 in 10.0 mi Calm Calm - N/A   Mostly Cloudy
11:56 PM 43.0 °F 39.5 °F 37.0 °F 80% 30.08 in 10.0 mi SE 5.8 mph - N/A   Clear